Location: Harrison
(47.4490°N, 116.7734°W)
Time: 17:18:17
(UTC+00:00)

STARS - Visible Passes

Search period start: 08 September 2024 00:00
Search period end: 18 September 2024 00:00
Orbit: 600 x 616 km, 98.1° (Epoch: 07 September)

Date Brightness Start Highest point End Pass type
(mag) Time Alt. Az. Time Alt. Az. Time Alt. Az.
08 Sep ? 08:23:44 10° NNE 08:24:37 16° NNE 08:24:37 16° NNE visible
09 Sep ? 08:37:17 10° N 08:38:11 16° N 08:38:11 16° N visible
10 Sep ? 08:50:53 10° N 08:51:43 15° N 08:51:43 15° N visible
11 Sep ? 09:04:30 10° N 09:05:14 14° N 09:05:14 14° N visible
12 Sep ? 09:18:10 10° N 09:18:43 13° NNW 09:18:43 13° NNW visible
13 Sep ? 09:31:54 10° NNW 09:32:10 11° NNW 09:32:10 11° NNW visible
14 Sep ? 08:08:35 10° NNE 08:08:42 11° NNE 08:08:42 11° NNE visible
15 Sep ? 08:21:55 10° NNE 08:22:06 11° NNE 08:22:06 11° NNE visible
16 Sep ? 08:35:17 10° N 08:35:29 11° N 08:35:29 11° N visible
17 Sep ? 08:48:40 10° N 08:48:49 11° N 08:48:49 11° N visible
